Location: Avon School (historical)
(37.7514°N, 90.2201°W)
Time: 10:35:56
(UTC+00:00)

Transit 2A Rocket - Visible Passes

Search period start: 07 November 2024 00:00
Search period end: 17 November 2024 00:00
Orbit: 584 x 906 km, 66.7° (Epoch: 06 November)

Date Brightness Start Highest point End Pass type
(mag) Time Alt. Az. Time Alt. Az. Time Alt. Az.
07 Nov 6.5 01:13:54 10° NNW 01:16:04 23° N 01:16:04 23° N visible
08 Nov 6.1 00:29:46 10° N 00:33:12 25° NNE 00:33:12 25° NNE visible
08 Nov 7.5 02:12:04 10° NW 02:13:00 15° NW 02:13:00 15° NW visible
08 Nov 6.4 23:46:02 10° N 23:49:09 16° NE 23:50:27 15° ENE visible
09 Nov 6.1 01:27:11 10° NNW 01:30:16 36° NW 01:30:16 36° NW visible
10 Nov 4.7 00:42:38 10° NNW 00:47:43 61° ENE 00:47:44 61° ENE visible
10 Nov 7.9 02:27:14 10° WNW 02:27:34 11° W 02:27:34 11° W visible
10 Nov 5.5 23:58:22 10° N 00:03:00 33° NE 00:05:28 20° ESE visible
11 Nov 6.7 01:41:09 10° NW 01:45:14 26° WSW 01:45:20 26° WSW visible
11 Nov 6.2 23:14:26 10° N 23:18:06 19° NE 23:21:33 10° E visible
12 Nov 5.5 00:56:04 10° NW 01:00:56 52° WSW 01:03:32 24° S visible
13 Nov 4.6 00:11:23 10° NNW 00:16:28 80° ENE 00:21:04 10° SSE visible
13 Nov 5.2 23:26:59 10° NNW 23:31:49 41° NE 23:36:13 10° SE visible
14 Nov 7.3 01:10:21 10° WNW 01:13:49 19° WSW 01:17:05 10° SSW visible
15 Nov 6.2 00:24:58 10° NW 00:29:34 38° WSW 00:33:47 10° S visible
15 Nov 4.9 23:40:08 10° NNW 23:45:10 79° WSW 23:49:42 10° SSE visible
